This is the latest recevied weather packets stored in our database for station/object SP3WRO-13. If no packets are shown the sender has not sent any weather packets the latest 10 day(s).
| Time | Temp. | Humidity | Pressure | Rain* | Wind** | Luminosity | Snow |
|---|---|---|---|---|---|---|---|
| 1777549445 | 15° C | 41% | 1026.2 hPa | - | - | 368 W/m² | - |
| 1777548545 | 15.56° C | 41% | 1026.1 hPa | - | - | 300 W/m² | - |
| 1777547645 | 15.56° C | 39% | 1026.3 hPa | - | - | 529 W/m² | - |
| 1777546745 | 15° C | 41% | 1026.4 hPa | - | - | 417 W/m² | - |
| 1777545845 | 14.44° C | 38% | 1026.6 hPa | - | - | 435 W/m² | - |
| 1777544945 | 13.89° C | 39% | 1026.9 hPa | - | - | 399 W/m² | - |
| 1777544045 | 13.33° C | 41% | 1027 hPa | - | - | 508 W/m² | - |
| 1777543145 | 13.33° C | 43% | 1026.9 hPa | - | - | 421 W/m² | - |
| 1777542245 | 13.33° C | 42% | 1026.9 hPa | - | - | 404 W/m² | - |
| 1777541345 | 12.22° C | 43% | 1027.1 hPa | - | - | 609 W/m² | - |
| 1777540445 | 11.11° C | 45% | 1027.3 hPa | - | - | 437 W/m² | - |
| 1777539544 | 10.56° C | 47% | 1027.5 hPa | - | - | 260 W/m² | - |
| 1777538644 | 10° C | 49% | 1027.7 hPa | - | - | 273 W/m² | - |
| 1777537744 | 9.44° C | 53% | 1028 hPa | - | - | 226 W/m² | - |
| 1777536844 | 8.33° C | 53% | 1028 hPa | - | - | 162 W/m² | - |
| 1777535944 | 8.33° C | 55% | 1028.2 hPa | - | - | 144 W/m² | - |
| 1777535044 | 7.78° C | 55% | 1028.2 hPa | - | - | 145 W/m² | - |
| 1777534144 | 7.78° C | 57% | 1028.3 hPa | - | - | 107 W/m² | - |
| 1777533244 | 7.22° C | 60% | 1028.3 hPa | - | - | 88 W/m² | - |
| 1777532344 | 7.22° C | 61% | 1028.3 hPa | - | - | 93 W/m² | - |
| 1777531444 | 6.67° C | 64% | 1028.2 hPa | - | - | 123 W/m² | - |
| 1777530543 | 5.56° C | 69% | 1028.2 hPa | - | - | 152 W/m² | - |
| 1777529643 | 5° C | 71% | 1028.1 hPa | - | - | 149 W/m² | - |
| 1777528743 | 3.89° C | 74% | 1028.1 hPa | - | - | 143 W/m² | - |
| 1777527843 | 2.78° C | 76% | 1028.1 hPa | - | - | 131 W/m² | - |
* Rain since midnight (hover to see other rain measurements)
** Current wind speed in m/s (hover to see current wind gust speed)